Location: Wildlife_Club
(35.6000°N, 81.4330°W)
Time: 00:01:50
(UTC-05:00)

Daily predictions for brighter satellites

Satellite Brightness Start Highest point End
(mag) Time Altitude Azimuth Time Altitude Azimuth Time Altitude Azimuth
Cosmos 2263 Rocket 4.3 04:48:04 10° SSE 04:52:30 24° E 04:56:56 10° NE
Gbstr 26 Del rocket 4.1 04:57:35 55° E 04:57:35 55° E 05:02:48 10° NE
NOSS 3-1 (C) 4.1 04:56:06 50° NNW 04:58:31 78° ENE 05:06:58 10° SE
Atlas 2A Centaur Rocket 4.2 04:59:59 21° SSE 04:59:59 21° SSE 05:01:37 10° SE
Cosmos 1603 4.1 05:05:03 49° NNE 05:06:15 60° ENE 05:11:50 10° SSE
SL-8 R/B 4.4 05:09:16 50° ENE 05:09:16 50° ENE 05:13:23 10° ESE
Cosmos 1340 Rocket 4.1 05:17:14 36° SE 05:17:14 36° SE 05:19:47 10° SSE
SeaSat 1 3.7 05:24:05 10° NNE 05:26:31 27° N 05:26:31 27° N
Milstar 3 Cent rocket 4.2 05:21:39 16° SW 05:29:21 36° S 05:35:10 10° ESE
Cosmos 1464 Rocket 4.0 05:23:38 10° S 05:29:57 81° E 05:36:13 10° N
Meteor 2-1 Rocket 4.1 05:25:54 10° S 05:31:32 90° W 05:37:20 10° N
Ariane Rocket 4.0 05:32:27 10° NNE 05:37:23 47° E 05:42:16 10° S
BREEZE-M DEB (TANK) 4.1 05:31:57 27° WNW 05:39:27 64° SW 05:43:54 10° SSE
Cosmos 2058 2.9 05:42:54 61° SW 05:42:54 61° SW 05:46:33 10° S
Cosmos 1626 3.0 05:40:45 14° N 05:43:50 48° E 05:47:26 10° SSE
Cosmos 923 Rocket 3.9 05:41:04 24° NNW 05:44:16 89° WSW 05:49:33 10° SSE
SL-16 R/B 4.3 05:48:56 10° SW 05:48:56 10° SW 05:49:04 10° SW
COSMO-SKYMED 1 2.5 05:44:33 10° SSE 05:48:54 90° WNW 05:52:16 17° NNW
Cosmos 1680 Rocket 3.6 05:45:52 13° NNW 05:50:37 79° ENE 05:55:56 10° SSE
DELTA 2 R/B (1) 3.8 05:49:38 40° WNW 05:51:21 58° N 05:56:50 10° ENE
Cosmos 1072 Rocket 4.4 05:46:42 10° SSW 05:52:46 59° W 05:58:47 10° N
Cosmos 1805 Rocket 3.5 05:48:24 10° N 05:52:47 87° E 05:57:08 10° S
ASTRO F (AKARI) 4.3 05:50:44 10° S 05:54:03 69° WSW 05:54:05 69° W
Meteor 1-28 Rocket 3.3 05:54:42 10° SSE 05:58:26 72° ENE 06:02:09 10° N
Cosmos 1356 Rocket 3.3 05:58:40 15° NNW 06:02:01 74° W 06:06:13 10° S
Sich 1 3.2 06:00:24 10° N 06:04:44 74° E 06:08:59 10° SSE
Cosmos 1184 Rocket 2.6 06:04:18 24° NNW 06:06:12 82° W 06:09:30 10° S
DMSP B5D1-3 4.4 06:01:36 10° S 06:06:43 79° WSW 06:11:50 10° NNW
IDEFIX/ARIANE 42P 4.1 06:02:26 10° NNE 06:07:21 39° E 06:12:14 10° SSE
NOSS 3-1 (A) 4.3 06:05:56 18° NW 06:11:42 51° WSW 06:19:48 10° S
NOSS 3-3 (A) 4.4 06:07:33 10° SSW 06:13:35 67° ESE 06:20:02 10° NE
NOSS 3-3 (C) 4.4 06:07:40 10° SSW 06:13:42 66° ESE 06:20:10 10° NE
Cosmos 1937 Rocket 4.1 06:08:56 10° S 06:13:58 58° ESE 06:19:00 10° NNE
Cosmos 1328 Rocket 3.9 06:09:56 10° S 06:14:13 69° E 06:18:35 10° NNE
DELTA 2 R/B(2) 3.7 06:15:37 45° NE 06:15:37 45° NE 06:17:23 10° ENE
Cosmos 1633 Rocket 3.0 06:11:22 10° N 06:15:44 87° E 06:20:03 10° S
Cosmos 2228 Rocket 3.2 06:12:24 10° S 06:16:50 79° E 06:21:14 10° N
Cosmos 1703 3.7 06:17:37 18° NNW 06:20:06 37° W 06:23:44 10° SSW
ATLAS 2AS CENTAUR R/B 3.5 06:12:25 10° NNW 06:20:23 60° NE 06:27:41 10° SE
Cosmos 2344 3.6 06:14:04 10° SW 06:21:43 70° NW 06:30:06 10° NNE
YAOGAN 3 4.5 06:18:32 10° N 06:22:55 84° WNW 06:27:16 10° SSW
Cosmos 1943 3.2 06:17:17 10° NNW 06:22:57 66° WSW 06:28:33 10° S
CSL-04 DEB 4.4 06:19:53 10° NNE 06:24:14 83° WNW 06:28:27 10° SSW
CZ-2C R/B 3.1 06:19:58 10° NNE 06:24:26 54° E 06:28:56 10° S
Cosmos 2112 Rocket 4.2 06:22:03 10° NNW 06:27:16 54° WSW 06:32:27 10° S
Cosmos 1515 Rocket 3.8 06:23:27 10° S 06:27:50 72° E 06:32:17 10° N
CZ-4 R/B 1.9 06:23:47 10° NNE 06:27:53 64° E 06:32:00 10° S
Cosmos 2221 4.0 06:30:00 17° WNW 06:30:00 17° WNW 06:32:08 10° NNW
Cosmos 389 Rocket 3.0 06:26:06 10° SSW 06:29:32 38° WNW 06:32:59 10° N
GPS 2-05 Rocket1 3.7 06:28:07 20° WSW 06:29:45 33° SSW 06:32:44 10° SE
CZ-3 Stage 3 3.6 06:28:09 14° WSW 06:32:08 44° S 06:50:12 10° ESE
Tiangong 2 2.7 06:31:20 17° NW 06:32:37 22° N 06:35:09 10° NE
CSL-04 Debris 4.1 06:28:35 10° N 06:34:02 69° WNW 06:39:25 10° SSW
SJ-12 4.0 06:30:32 10° NNE 06:34:37 80° ESE 06:38:40 10° S
Cosmos 2263 Rocket 2.6 06:30:47 10° SW 06:36:06 41° WNW 06:41:28 10° N
Cosmos 2298 Rocket 4.0 06:31:04 10° SSW 06:36:17 63° WNW 06:41:33 10° N
ATLAS 3B CENTAUR R/B 4.1 06:32:07 10° SW 06:37:45 50° SSE 06:53:12 10° E
Cosmos 1844 Rocket 4.2 06:33:03 10° S 06:38:16 40° ESE 06:43:31 10° NE
Cosmos 1726 2.8 06:34:41 10° S 06:38:17 58° E 06:41:57 10° NNE
SMAP 3.5 06:33:49 10° NNE 06:38:29 67° ESE 06:43:05 10° S
YAOGAN 1 3.1 06:38:26 10° NNE 06:42:44 63° E 06:47:01 10° S
PSLV R/B 3.9 06:41:01 15° WNW 06:43:39 46° NNE 06:46:55 10° E
APEX 4.2 06:42:01 10° WSW 06:44:52 20° WNW 06:47:20 10° NNW
Nadezhda 4 Rocket 4.1 06:39:12 10° NNW 06:45:22 57° W 06:51:27 10° SSW
Cosmos 1484 Rocket 4.4 06:44:38 10° NNE 06:48:24 39° E 06:52:04 10° SSE
AQUARIUS 4.1 06:48:00 10° N 06:52:31 83° WNW 06:57:01 10° SSW
CSL-04 Rocket 4.1 06:48:45 10° N 06:53:34 37° WNW 06:58:22 10° SW
COSMOS 2406 4.3 06:52:48 10° N 06:58:22 47° ENE 07:03:53 10° SE
Iridium 4 Rocket 3.5 06:54:49 10° N 06:59:19 79° E 07:04:15 10° S
MOS 1 4.4 06:56:15 10° NNE 07:01:59 89° WNW 07:07:41 10° SSW
Coronas F rocket 3.3 07:01:47 10° W 07:02:00 10° W 07:02:14 10° W
MSX 4.0 06:57:45 10° NNE 07:03:33 84° ESE 07:09:20 10° SSW
Cosmos 1933 Rocket 3.6 06:59:33 10° NNW 07:03:55 59° W 07:08:14 10° S
Cosmos 1092 Rocket 4.2 07:02:10 10° NNW 07:08:11 52° W 07:14:08 10° SSW
